Tracking 29494 objects as of 7-Sep-2024
HD Live streaming from Space Station
objects crossing your sky now

STARLINK-5399

Track STARLINK-5399 now!
10-day predictions
STARLINK-5399 is classified as:


NORAD ID: 54788
Int'l Code: 2022-175AG
Perigee: 545.8 km
Apogee: 548.1 km
Inclination: 53.2 °
Period: 95.4 minutes
Semi major axis: 6917 km
RCS: Unknown
Launch date: December 17, 2022
Source: United States (US)
Launch site: AIR FORCE EASTERN TEST RANGE (AFETR)
Your satellite tracking list
Your tracking list is empty




NASA's NSSDC Master Catalog

Two Line Element Set (TLE):
1 54788U 22175AG  24251.50172737 -.00000976  00000-0 -43236-4 0  9991
2 54788  53.2186 329.9029 0001645 101.8808 258.2368 15.08828044 95216
Source of the keplerian elements: AFSPC